Time,TemperatureF,DewpointF,PressureIn,WindDirection,WindDirectionDegrees,WindSpeedMPH,WindSpeedGustMPH,Humidity,HourlyPrecipIn,Conditions,Clouds,dailyrainin,SolarRadiationWatts/m^2,SoftwareType,DateUTC
2013-01-09 00:22:00,55.0,26.0,30.14,SSE,158,5.0,21.0,33,0.00,,,0.00,0.000000,,2013-01-09 08:22:00,
2013-01-09 00:32:00,55.0,26.0,30.14,SSE,158,5.0,21.0,33,0.00,,,0.00,0.000000,,2013-01-09 08:32:00,
2013-01-09 00:42:00,55.0,26.0,30.14,SSE,158,5.0,21.0,33,0.00,,,0.00,0.000000,,2013-01-09 08:42:00,
2013-01-09 00:52:00,55.0,26.0,30.14,SSE,158,5.0,21.0,33,0.00,,,0.00,0.000000,,2013-01-09 08:52:00,
2013-01-09 01:22:00,55.0,26.0,30.13,SE,145,8.0,20.0,33,0.00,,,0.00,0.000000,,2013-01-09 09:22:00,
2013-01-09 01:32:00,55.0,26.0,30.13,SE,145,8.0,20.0,33,0.00,,,0.00,0.000000,,2013-01-09 09:32:00,
2013-01-09 01:42:00,55.0,26.0,30.13,SE,145,8.0,20.0,33,0.00,,,0.00,0.000000,,2013-01-09 09:42:00,
2013-01-09 01:53:00,55.0,26.0,30.13,SE,145,8.0,20.0,33,0.00,,,0.00,0.000000,,2013-01-09 09:53:00,
2013-01-09 02:22:00,55.0,26.0,30.13,East,88,6.0,24.0,33,0.00,,,0.00,0.000000,,2013-01-09 10:22:00,
2013-01-09 02:32:00,55.0,26.0,30.13,East,88,6.0,24.0,33,0.00,,,0.00,0.000000,,2013-01-09 10:32:00,
2013-01-09 02:42:00,55.0,26.0,30.13,East,88,6.0,24.0,33,0.00,,,0.00,0.000000,,2013-01-09 10:42:00,
2013-01-09 02:52:00,55.0,26.0,30.13,East,88,6.0,24.0,33,0.00,,,0.00,0.000000,,2013-01-09 10:52:00,
2013-01-09 03:22:00,55.0,27.0,30.12,East,95,5.0,21.0,34,0.00,,,0.00,0.000000,,2013-01-09 11:22:00,
2013-01-09 03:32:00,55.0,27.0,30.12,East,95,5.0,21.0,34,0.00,,,0.00,0.000000,,2013-01-09 11:32:00,
2013-01-09 03:42:00,55.0,27.0,30.12,East,95,5.0,21.0,34,0.00,,,0.00,0.000000,,2013-01-09 11:42:00,
2013-01-09 03:52:00,55.0,27.0,30.12,East,95,5.0,21.0,34,0.00,,,0.00,0.000000,,2013-01-09 11:52:00,
2013-01-09 04:22:00,56.0,28.0,30.11,SSW,212,5.0,22.0,34,0.00,,,0.00,0.000000,,2013-01-09 12:22:00,
2013-01-09 04:33:00,56.0,28.0,30.11,SSW,212,5.0,22.0,34,0.00,,,0.00,0.000000,,2013-01-09 12:33:00,
2013-01-09 04:42:00,56.0,28.0,30.11,SSW,212,5.0,22.0,34,0.00,,,0.00,0.000000,,2013-01-09 12:42:00,
2013-01-09 04:52:00,56.0,28.0,30.11,SSW,212,5.0,22.0,34,0.00,,,0.00,0.000000,,2013-01-09 12:52:00,
2013-01-09 05:22:00,56.0,29.0,30.10,SE,134,3.0,21.0,35,0.00,,,0.00,0.000000,,2013-01-09 13:22:00,
2013-01-09 05:32:00,56.0,29.0,30.10,SE,134,3.0,21.0,35,0.00,,,0.00,0.000000,,2013-01-09 13:32:00,
2013-01-09 05:42:00,56.0,29.0,30.10,SE,134,3.0,21.0,35,0.00,,,0.00,0.000000,,2013-01-09 13:42:00,
2013-01-09 05:52:00,56.0,29.0,30.10,SE,134,3.0,21.0,35,0.00,,,0.00,0.000000,,2013-01-09 13:52:00,
2013-01-09 06:22:00,55.0,29.0,30.12,North,358,5.0,15.0,36,0.00,,,0.00,0.000000,,2013-01-09 14:22:00,
2013-01-09 06:33:00,55.0,29.0,30.12,North,358,5.0,15.0,36,0.00,,,0.00,0.000000,,2013-01-09 14:33:00,
2013-01-09 06:43:00,55.0,29.0,30.12,North,358,5.0,15.0,36,0.00,,,0.00,0.000000,,2013-01-09 14:43:00,
2013-01-09 06:52:00,55.0,29.0,30.12,North,358,5.0,15.0,36,0.00,,,0.00,0.000000,,2013-01-09 14:52:00,
2013-01-09 07:22:00,56.0,29.0,30.11,NW,319,7.0,22.0,35,0.00,,,0.00,0.000000,,2013-01-09 15:22:00,
2013-01-09 07:33:00,56.0,29.0,30.11,NW,319,7.0,22.0,35,0.00,,,0.00,0.000000,,2013-01-09 15:33:00,
2013-01-09 07:42:00,56.0,29.0,30.11,NW,319,7.0,22.0,35,0.00,,,0.00,0.000000,,2013-01-09 15:42:00,
2013-01-09 07:52:00,56.0,29.0,30.11,NW,319,7.0,22.0,35,0.00,,,0.00,0.000000,,2013-01-09 15:52:00,
2013-01-09 08:22:00,57.0,28.0,30.12,NW,317,8.0,17.0,33,0.00,,,0.00,42.000000,,2013-01-09 16:22:00,
2013-01-09 08:33:00,57.0,28.0,30.12,NW,317,8.0,17.0,33,0.00,,,0.00,42.000000,,2013-01-09 16:33:00,
2013-01-09 08:42:00,57.0,28.0,30.12,NW,317,8.0,17.0,33,0.00,,,0.00,42.000000,,2013-01-09 16:42:00,
2013-01-09 08:52:00,57.0,28.0,30.12,NW,317,8.0,17.0,33,0.00,,,0.00,42.000000,,2013-01-09 16:52:00,
2013-01-09 09:22:00,60.0,33.0,30.13,NNW,327,5.0,16.0,36,0.00,,,0.00,256.000000,,2013-01-09 17:22:00,
2013-01-09 09:32:00,60.0,33.0,30.13,NNW,327,5.0,16.0,36,0.00,,,0.00,256.000000,,2013-01-09 17:32:00,
2013-01-09 09:43:00,60.0,33.0,30.13,NNW,327,5.0,16.0,36,0.00,,,0.00,256.000000,,2013-01-09 17:43:00,
2013-01-09 09:52:00,60.0,33.0,30.13,NNW,327,5.0,16.0,36,0.00,,,0.00,256.000000,,2013-01-09 17:52:00,
2013-01-09 10:23:00,63.0,32.0,30.13,NW,310,4.0,14.0,31,0.00,,,0.00,371.000000,,2013-01-09 18:23:00,
2013-01-09 10:33:00,63.0,32.0,30.13,NW,310,4.0,14.0,31,0.00,,,0.00,371.000000,,2013-01-09 18:33:00,
2013-01-09 10:43:00,63.0,32.0,30.13,NW,310,4.0,14.0,31,0.00,,,0.00,371.000000,,2013-01-09 18:43:00,
2013-01-09 10:52:00,63.0,32.0,30.13,NW,310,4.0,14.0,31,0.00,,,0.00,371.000000,,2013-01-09 18:52:00,
2013-01-09 11:22:00,71.0,37.0,30.11,South,171,7.0,11.0,29,0.00,,,0.00,504.000000,,2013-01-09 19:22:00,
2013-01-09 11:33:00,71.0,37.0,30.11,South,171,7.0,11.0,29,0.00,,,0.00,504.000000,,2013-01-09 19:33:00,
2013-01-09 11:43:00,71.0,37.0,30.11,South,171,7.0,11.0,29,0.00,,,0.00,504.000000,,2013-01-09 19:43:00,
2013-01-09 11:52:00,71.0,37.0,30.11,South,171,7.0,11.0,29,0.00,,,0.00,504.000000,,2013-01-09 19:52:00,
2013-01-09 12:22:00,64.0,31.0,30.09,South,175,14.0,16.0,29,0.00,,,0.00,564.000000,,2013-01-09 20:22:00,
2013-01-09 12:33:00,64.0,31.0,30.09,South,175,14.0,16.0,29,0.00,,,0.00,564.000000,,2013-01-09 20:33:00,
2013-01-09 12:42:00,64.0,31.0,30.09,South,175,14.0,16.0,29,0.00,,,0.00,564.000000,,2013-01-09 20:42:00,
2013-01-09 12:52:00,64.0,31.0,30.09,South,175,14.0,16.0,29,0.00,,,0.00,564.000000,,2013-01-09 20:52:00,
2013-01-09 13:22:00,64.0,34.0,30.06,SSE,165,12.0,25.0,32,0.00,,,0.00,489.000000,,2013-01-09 21:22:00,
2013-01-09 13:33:00,64.0,34.0,30.06,SSE,165,12.0,25.0,32,0.00,,,0.00,489.000000,,2013-01-09 21:33:00,
2013-01-09 13:42:00,64.0,34.0,30.06,SSE,165,12.0,25.0,32,0.00,,,0.00,489.000000,,2013-01-09 21:42:00,
2013-01-09 13:52:00,64.0,34.0,30.06,SSE,165,12.0,25.0,32,0.00,,,0.00,489.000000,,2013-01-09 21:52:00,
2013-01-09 14:22:00,64.0,32.0,30.04,South,177,13.0,26.0,30,0.00,,,0.00,462.000000,,2013-01-09 22:22:00,
2013-01-09 14:33:00,64.0,32.0,30.04,South,177,13.0,26.0,30,0.00,,,0.00,462.000000,,2013-01-09 22:33:00,
2013-01-09 14:42:00,64.0,32.0,30.04,South,177,13.0,26.0,30,0.00,,,0.00,462.000000,,2013-01-09 22:42:00,
2013-01-09 14:52:00,64.0,32.0,30.04,South,177,13.0,26.0,30,0.00,,,0.00,462.000000,,2013-01-09 22:52:00,
2013-01-09 15:22:00,65.0,36.0,30.03,South,181,11.0,27.0,34,0.00,,,0.00,388.000000,,2013-01-09 23:22:00,
2013-01-09 15:32:00,65.0,36.0,30.03,South,181,11.0,27.0,34,0.00,,,0.00,388.000000,,2013-01-09 23:32:00,
2013-01-09 15:42:00,65.0,36.0,30.03,South,181,11.0,27.0,34,0.00,,,0.00,388.000000,,2013-01-09 23:42:00,
2013-01-09 15:52:00,65.0,36.0,30.03,South,181,11.0,27.0,34,0.00,,,0.00,388.000000,,2013-01-09 23:52:00,
2013-01-09 16:22:00,61.0,36.0,30.02,South,177,15.0,26.0,40,0.00,,,0.00,223.000000,,2013-01-10 00:22:00,
2013-01-09 16:32:00,61.0,36.0,30.02,South,177,15.0,26.0,40,0.00,,,0.00,223.000000,,2013-01-10 00:32:00,
2013-01-09 16:42:00,61.0,36.0,30.02,South,177,15.0,26.0,40,0.00,,,0.00,223.000000,,2013-01-10 00:42:00,
2013-01-09 16:52:00,61.0,36.0,30.02,South,177,15.0,26.0,40,0.00,,,0.00,223.000000,,2013-01-10 00:52:00,
2013-01-09 17:22:00,57.0,34.0,30.01,South,174,14.0,26.0,41,0.00,,,0.00,93.000000,,2013-01-10 01:22:00,
2013-01-09 17:32:00,57.0,34.0,30.01,South,174,14.0,26.0,41,0.00,,,0.00,93.000000,,2013-01-10 01:32:00,
2013-01-09 17:42:00,57.0,34.0,30.01,South,174,14.0,26.0,41,0.00,,,0.00,93.000000,,2013-01-10 01:42:00,
2013-01-09 17:52:00,57.0,34.0,30.01,South,174,14.0,26.0,41,0.00,,,0.00,93.000000,,2013-01-10 01:52:00,
2013-01-09 18:22:00,53.0,36.0,30.01,South,177,13.0,28.0,53,0.00,,,0.00,11.000000,,2013-01-10 02:22:00,
2013-01-09 18:32:00,53.0,36.0,30.01,South,177,13.0,28.0,53,0.00,,,0.00,11.000000,,2013-01-10 02:32:00,
2013-01-09 18:42:00,53.0,36.0,30.01,South,177,13.0,28.0,53,0.00,,,0.00,11.000000,,2013-01-10 02:42:00,
2013-01-09 18:52:00,53.0,36.0,30.01,South,177,13.0,28.0,53,0.00,,,0.00,11.000000,,2013-01-10 02:52:00,
2013-01-09 19:22:00,51.0,40.0,30.01,NNE,15,7.0,22.0,66,0.00,,,0.00,4.000000,,2013-01-10 03:22:00,
2013-01-09 19:32:00,51.0,40.0,30.01,NNE,15,7.0,22.0,66,0.00,,,0.00,4.000000,,2013-01-10 03:32:00,
2013-01-09 19:42:00,51.0,40.0,30.01,NNE,15,7.0,22.0,66,0.00,,,0.00,4.000000,,2013-01-10 03:42:00,
2013-01-09 19:52:00,51.0,40.0,30.01,NNE,15,7.0,22.0,66,0.00,,,0.00,4.000000,,2013-01-10 03:52:00,
2013-01-09 20:22:00,48.0,38.0,30.00,South,181,11.0,17.0,67,0.00,,,0.00,2.000000,,2013-01-10 04:22:00,
2013-01-09 20:32:00,48.0,38.0,30.00,South,181,11.0,17.0,67,0.00,,,0.00,2.000000,,2013-01-10 04:32:00,
2013-01-09 20:42:00,48.0,38.0,30.00,South,181,11.0,17.0,67,0.00,,,0.00,2.000000,,2013-01-10 04:42:00,
2013-01-09 20:52:00,48.0,38.0,30.00,South,181,11.0,17.0,67,0.00,,,0.00,2.000000,,2013-01-10 04:52:00,
2013-01-09 21:22:00,48.0,48.0,29.98,South,180,12.0,21.0,99,0.00,,,0.00,2.000000,,2013-01-10 05:22:00,
2013-01-09 21:33:00,48.0,48.0,29.98,South,180,12.0,21.0,99,0.00,,,0.00,2.000000,,2013-01-10 05:33:00,
2013-01-09 21:42:00,48.0,48.0,29.98,South,180,12.0,21.0,99,0.00,,,0.00,2.000000,,2013-01-10 05:42:00,
2013-01-09 21:52:00,48.0,48.0,29.98,South,180,12.0,21.0,99,0.00,,,0.00,2.000000,,2013-01-10 05:52:00,
2013-01-09 22:22:00,45.0,45.0,29.98,East,99,12.0,24.0,99,0.00,,,0.00,25.000000,,2013-01-10 06:22:00,
2013-01-09 22:32:00,45.0,45.0,29.98,East,99,12.0,24.0,99,0.00,,,0.00,25.000000,,2013-01-10 06:32:00,
2013-01-09 22:42:00,45.0,45.0,29.98,East,99,12.0,24.0,99,0.00,,,0.00,25.000000,,2013-01-10 06:42:00,
2013-01-09 22:52:00,45.0,45.0,29.98,East,99,12.0,24.0,99,0.00,,,0.00,25.000000,,2013-01-10 06:52:00,
2013-01-09 23:22:00,44.0,44.0,29.99,South,177,16.0,28.0,99,0.00,,,0.00,299.000000,,2013-01-10 07:22:00,
2013-01-09 23:32:00,44.0,44.0,29.99,South,177,16.0,28.0,99,0.00,,,0.00,299.000000,,2013-01-10 07:32:00,
2013-01-09 23:42:00,44.0,44.0,29.99,South,177,16.0,28.0,99,0.00,,,0.00,299.000000,,2013-01-10 07:42:00,
2013-01-09 23:52:00,44.0,44.0,29.99,South,177,16.0,28.0,99,0.00,,,0.00,299.000000,,2013-01-10 07:52:00,